FW8685 Weather Reports


Display with metric or nautical units.
time (UTC)temp
F
wind
direction
speed
MPH
gust
MPH
rain 1hr
in
rain 24hr
in
rain mn
in
humidity
%
barometer
mb
20260505230522 50 43 10.0 21.0 0.00 0.00 0.00 72 1008.9
20260505230038 50 44 13.0 21.0 0.00 0.00 0.00 72 1008.9
20260505225522 50 53 11.0 18.0 0.00 0.00 0.00 71 1008.9
20260505225022 50 65 12.0 18.0 0.00 0.00 0.00 70 1008.9
20260505224538 51 65 12.0 18.0 0.00 0.00 0.00 71 1009.0
20260505224022 51 58 10.0 19.0 0.00 0.00 0.00 70 1008.8
20260505223522 51 32 9.0 19.0 0.00 0.00 0.00 71 1008.6
20260505223058 51 61 11.0 20.0 0.00 0.00 0.00 72 1008.6
20260505222522 50 40 12.0 21.0 0.00 0.00 0.00 71 1008.8
20260505222023 50 32 12.0 21.0 0.00 0.00 0.00 71 1008.9
20260505221539 50 54 10.0 19.0 0.00 0.00 0.00 71 1008.8
20260505221021 51 72 11.0 19.0 0.00 0.00 0.00 71 1008.7
20260505220521 51 43 13.0 22.0 0.00 0.00 0.00 71 1008.9
20260505220043 50 62 15.0 22.0 0.00 0.00 0.00 71 1009.1
20260505215523 50 55 15.0 22.0 0.00 0.00 0.00 71 1009.1
20260505215022 50 36 11.0 23.0 0.00 0.00 0.00 71 1009.0
20260505214542 50 52 16.0 23.0 0.00 0.00 0.00 70 1009.1
20260505214023 50 26 15.0 22.0 0.00 0.00 0.00 70 1009.1
20260505213522 50 56 15.0 26.0 0.00 0.00 0.00 69 1009.2
20260505213037 50 61 14.0 27.0 0.00 0.00 0.00 69 1009.3
20260505212522 51 58 19.0 27.0 0.00 0.00 0.00 68 1009.2
20260505212023 51 71 15.0 22.0 0.00 0.00 0.00 69 1009.2
20260505211539 51 36 14.0 22.0 0.00 0.00 0.00 71 1009.2
20260505211022 51 38 15.0 22.0 0.00 0.00 0.00 71 1009.2
20260505210521 51 33 13.0 22.0 0.00 0.00 0.00 71 1009.2
20260505210038 51 50 12.0 22.0 0.00 0.00 0.00 71 1009.3
20260505205523 51 55 11.0 19.0 0.00 0.00 0.00 71 1009.2
20260505205021 51 52 11.0 22.0 0.00 0.00 0.00 71 1009.3
20260505204537 51 71 12.0 22.0 0.00 0.00 0.00 71 1009.2
20260505204022 51 57 12.0 21.0 0.00 0.00 0.00 70 1009.1
20260505203522 51 76 16.0 22.0 0.00 0.00 0.00 70 1009.1
20260505203038 51 28 17.0 26.0 0.00 0.00 0.00 69 1009.1
20260505202523 51 58 15.0 26.0 0.00 0.00 0.00 69 1009.1
20260505202022 51 60 18.0 27.0 0.00 0.00 0.00 68 1009.1
20260505201538 51 60 18.0 27.0 0.00 0.00 0.00 67 1009.1
20260505201022 51 53 18.0 27.0 0.00 0.00 0.00 68 1009.3
20260505200522 51 57 14.0 23.0 0.00 0.00 0.00 70 1009.1
20260505200042 51 57 15.0 25.0 0.00 0.00 0.00 70 1009.0
20260505195523 51 60 16.0 31.0 0.00 0.00 0.00 69 1009.1
20260505195023 51 60 17.0 31.0 0.00 0.00 0.00 69 1009.1
20260505194539 51 47 19.0 31.0 0.00 0.00 0.00 69 1009.0
20260505194023 51 80 13.0 24.0 0.00 0.00 0.00 71 1009.1
20260505193522 51 44 15.0 24.0 0.00 0.00 0.00 70 1009.1
20260505193039 51 43 17.0 24.0 0.00 0.00 0.00 69 1009.1
20260505192523 51 49 14.0 24.0 0.00 0.00 0.00 67 1009.2
20260505192023 51 60 13.0 31.0 0.00 0.00 0.00 67 1009.2
20260505191538 51 71 21.0 31.0 0.00 0.00 0.00 66 1009.0
20260505191023 51 72 20.0 29.0 0.00 0.00 0.00 67 1009.0
20260505190525 52 42 18.0 32.0 0.00 0.00 0.00 67 1008.8
20260505190046 52 70 16.0 35.0 0.00 0.00 0.00 67 1008.7
20260505185522 52 61 17.0 35.0 0.00 0.00 0.00 66 1008.7
20260505185022 52 55 20.0 31.0 0.00 0.00 0.00 67 1008.4
20260505184538 51 50 17.0 31.0 0.00 0.00 0.00 68 1008.3
20260505184021 52 74 17.0 30.0 0.00 0.00 0.00 68 1008.2
20260505183522 52 65 16.0 26.0 0.00 0.00 0.00 68 1008.4
20260505183045 52 32 13.0 24.0 0.00 0.00 0.00 69 1008.4
20260505182522 52 53 14.0 28.0 0.00 0.00 0.00 68 1008.4
20260505182022 52 33 18.0 29.0 0.00 0.00 0.00 67 1008.4
20260505181540 52 81 20.0 30.0 0.00 0.00 0.00 67 1008.3
20260505181042 51 63 17.0 30.0 0.00 0.00 0.00 66 1008.3
20260505180522 51 60 20.0 33.0 0.00 0.00 0.00 66 1008.4
20260505180041 51 24 20.0 33.0 0.00 0.00 0.00 65 1008.6
20260505175521 52 44 23.0 31.0 0.00 0.00 0.00 65 1008.7
20260505175022 51 46 20.0 31.0 0.00 0.00 0.00 65 1008.8
20260505174540 52 42 19.0 31.0 0.00 0.00 0.00 64 1008.7
20260505174023 52 61 18.0 31.0 0.00 0.00 0.00 64 1008.5
20260505173526 52 61 20.0 31.0 0.00 0.00 0.00 65 1008.3
20260505173044 52 40 19.0 29.0 0.00 0.00 0.00 66 1008.3
20260505172524 52 34 19.0 32.0 0.00 0.00 0.00 66 1008.3
20260505172022 52 26 21.0 35.0 0.00 0.00 0.00 66 1008.5
20260505171538 52 55 22.0 35.0 0.00 0.00 0.00 65 1008.5
20260505171025 52 29 19.0 30.0 0.00 0.00 0.00 64 1008.5
20260505170522 52 44 18.0 30.0 0.00 0.00 0.00 64 1008.6
20260505170038 52 54 21.0 31.0 0.00 0.00 0.00 64 1008.5
20260505165522 52 64 22.0 31.0 0.00 0.00 0.00 63 1008.3
20260505165022 52 67 21.0 35.0 0.00 0.00 0.00 64 1008.2
20260505164539 52 54 20.0 35.0 0.00 0.00 0.00 65 1008.1
20260505164023 52 49 20.0 30.0 0.00 0.00 0.00 66 1008.1
20260505163523 52 46 18.0 30.0 0.00 0.00 0.00 66 1008.1
20260505163038 52 58 18.0 29.0 0.00 0.00 0.00 66 1008.1
20260505162521 52 47 19.0 38.0 0.00 0.00 0.00 65 1008.1
20260505162024 52 65 21.0 38.0 0.00 0.00 0.00 64 1008.2
20260505161540 52 44 22.0 32.0 0.00 0.00 0.00 64 1008.0
20260505161022 52 44 19.0 32.0 0.00 0.00 0.00 66 1008.0
20260505160523 52 52 18.0 32.0 0.00 0.00 0.00 64 1007.6
20260505153040 52 83 24.0 38.0 0.00 0.00 0.00 64 1006.8
20260505152523 52 67 21.0 36.0 0.00 0.00 0.00 65 1007.0
20260505152021 52 51 21.0 37.0 0.00 0.00 0.00 65 1006.9
20260505151535 52 60 20.0 37.0 0.00 0.00 0.00 65 1007.2
20260505151022 52 69 18.0 37.0 0.00 0.00 0.00 65 1007.1
20260505150522 52 65 14.0 32.0 0.00 0.00 0.00 65 1007.3
20260505140522 51 50 15.0 30.0 0.00 0.00 0.00 66 1007.1
20260505125024 52 54 16.0 31.0 0.00 0.00 0.00 67 1005.6
20260505124543 52 40 21.0 31.0 0.00 0.00 0.00 66 1005.6
20260505124020 52 71 19.0 34.0 0.00 0.00 0.00 66 1005.6
20260505123525 52 44 21.0 34.0 0.00 0.00 0.00 66 1005.4
20260505123038 52 48 19.0 30.0 0.00 0.00 0.00 65 1005.1
20260505122521 52 47 19.0 30.0 0.00 0.00 0.00 65 1005.1
20260505122026 52 49 18.0 33.0 0.00 0.00 0.00 66 1004.9
20260505121542 52 31 20.0 36.0 0.00 0.00 0.00 66 1004.9
20260505121021 52 17 19.0 36.0 0.00 0.00 0.00 66 1004.9
20260505120521 52 49 16.0 32.0 0.00 0.00 0.00 66 1004.8
20260505120047 53 58 21.0 34.0 0.00 0.00 0.00 65 1004.5
20260505115520 53 65 23.0 34.0 0.00 0.00 0.00 64 1004.4
20260505115023 53 67 16.0 33.0 0.00 0.00 0.00 64 1004.3
20260505114542 53 55 17.0 33.0 0.00 0.00 0.00 65 1004.2
20260505114023 53 37 19.0 33.0 0.00 0.00 0.00 64 1004.1
20260505113522 53 61 18.0 33.0 0.00 0.00 0.00 64 1004.0
20260505113036 53 52 20.0 33.0 0.00 0.00 0.00 64 1003.9
20260505112527 53 51 19.0 30.0 0.00 0.00 0.00 65 1003.6
20260505112020 53 35 19.0 30.0 0.00 0.00 0.00 65 1003.6
20260505111539 53 44 18.0 29.0 0.00 0.00 0.00 65 1003.6
20260505111023 53 70 19.0 30.0 0.00 0.00 0.00 65 1003.5
20260505110521 53 61 19.0 31.0 0.00 0.00 0.00 65 1003.3
20260505102024 54 63 22.0 37.0 0.00 0.00 0.00 67 1002.9
20260505101543 54 30 20.0 35.0 0.00 0.00 0.00 67 1002.9
20260505101023 54 44 23.0 35.0 0.00 0.00 0.00 67 1002.8
20260505100522 54 65 19.0 35.0 0.00 0.00 0.00 67 1002.8
20260505100041 54 40 21.0 35.0 0.00 0.00 0.00 68 1002.8
20260505095522 54 61 25.0 35.0 0.00 0.00 0.00 68 1002.6
20260505095021 54 56 22.0 36.0 0.00 0.00 0.00 69 1002.7
20260505094537 54 49 22.0 36.0 0.00 0.00 0.00 69 1002.6
20260505094023 54 59 25.0 34.0 0.00 0.00 0.00 70 1002.4
20260505093526 54 61 19.0 34.0 0.00 0.00 0.00 71 1002.5
20260505093037 55 57 22.0 34.0 0.00 0.00 0.00 72 1002.5
20260505092520 55 38 18.0 34.0 0.00 0.00 0.00 73 1002.5
20260505092023 56 26 21.0 31.0 0.00 0.00 0.00 73 1002.5
20260505091537 56 30 15.0 28.0 0.00 0.00 0.00 72 1002.5
20260505091020 56 61 15.0 28.0 0.00 0.00 0.00 71 1002.3
20260505090522 56 63 16.0 27.0 0.00 0.00 0.00 71 1002.1
20260505090040 57 61 16.0 32.0 0.00 0.00 0.00 72 1002.0
20260505085522 57 39 19.0 32.0 0.00 0.00 0.00 72 1001.9
20260505085023 57 72 17.0 30.0 0.00 0.00 0.00 72 1001.8
20260505084546 57 63 18.0 31.0 0.00 0.00 0.00 72 1001.7
20260505084021 57 48 21.0 33.0 0.00 0.00 0.00 72 1001.8
20260505083520 58 36 19.0 35.0 0.00 0.00 0.00 72 1001.6
20260505083038 58 28 24.0 35.0 0.00 0.00 0.00 72 1001.6
20260505082520 59 53 18.0 34.0 0.00 0.00 0.00 74 1001.7
20260505082020 59 49 20.0 34.0 0.00 0.00 0.00 77 1001.7
20260505081537 60 49 16.0 26.0 0.00 0.00 0.00 78 1001.6
20260505081022 60 48 16.0 22.0 0.00 0.00 0.00 79 1001.4
20260505080522 61 30 14.0 26.0 0.00 0.00 0.00 77 1001.4
20260505080037 62 34 18.0 26.0 0.00 0.00 0.00 75 1001.2
20260505075521 62 22 15.0 23.0 0.00 0.00 0.00 74 1001.1
20260505075025 62 51 14.0 23.0 0.00 0.00 0.00 74 1000.9
20260505074540 62 68 16.0 23.0 0.00 0.00 0.00 74 1000.8
20260505074021 62 51 15.0 27.0 0.00 0.00 0.00 74 1000.9
20260505073521 63 19 14.0 27.0 0.00 0.00 0.00 73 1000.9
20260505073044 64 24 14.0 28.0 0.00 0.00 0.00 72 1000.9
20260505072521 64 55 18.0 28.0 0.00 0.00 0.00 71 1000.8
20260505072020 65 44 18.0 28.0 0.00 0.00 0.00 75 1000.7
20260505071537 66 44 9.0 16.0 0.00 0.00 0.00 79 1000.7
20260505071020 65 56 8.0 13.0 0.00 0.00 0.00 79 1000.6
20260505070520 65 51 9.0 13.0 0.00 0.00 0.00 79 1000.5
20260505070048 64 54 8.0 11.0 0.00 0.00 0.00 79 1000.5
20260505065523 64 57 7.0 11.0 0.00 0.00 0.00 79 1000.5
20260505065021 64 44 4.0 11.0 0.00 0.00 0.00 79 1000.5
20260505064541 64 46 6.0 11.0 0.00 0.00 0.00 78 1000.4
20260505064021 64 61 4.0 8.0 0.00 0.00 0.00 78 1000.4
20260505063521 64 47 4.0 9.0 0.00 0.00 0.00 78 1000.3
20260505063039 64 22 4.0 10.0 0.00 0.00 0.00 78 1000.2
20260505062521 63 17 4.0 12.0 0.00 0.00 0.00 78 1000.2
20260505062021 63 352 6.0 12.0 0.00 0.00 0.00 79 1000.0
20260505061541 63 27 6.0 9.0 0.00 0.00 0.00 78 999.9
20260505061020 63 16 6.0 9.0 0.00 0.00 0.00 78 999.7
20260505060523 63 13 4.0 8.0 0.00 0.00 0.00 78 999.7
20260505060039 64 36 3.0 6.0 0.00 0.00 0.00 78 999.6
20260505055521 64 46 4.0 8.0 0.00 0.00 0.00 77 999.6
20260505055021 64 51 3.0 8.0 0.00 0.00 0.00 76 999.5
20260505054540 64 47 5.0 8.0 0.00 0.00 0.00 76 999.6
20260505054022 65 30 4.0 7.0 0.00 0.00 0.00 75 999.6
20260505053527 65 39 3.0 8.0 0.00 0.00 0.00 75 999.5
20260505053049 65 94 4.0 9.0 0.00 0.00 0.00 74 999.4
20260505052521 65 128 5.0 13.0 0.00 0.00 0.00 74 999.3
20260505052021 66 129 4.0 13.0 0.00 0.00 0.00 74 999.1
20260505051539 66 135 6.0 11.0 0.00 0.00 0.00 74 999.0
20260505051023 66 163 5.0 9.0 0.00 0.00 0.00 73 999.1
20260505050523 66 130 6.0 9.0 0.00 0.00 0.00 73 999.2
20260505041550 70 150 9.0 17.0 0.00 0.00 0.00 72 999.2
20260505041022 70 174 10.0 17.0 0.00 0.00 0.00 73 999.1
20260505040522 71 147 10.0 17.0 0.00 0.00 0.00 73 999.3
20260505040048 71 130 9.0 17.0 0.00 0.00 0.00 72 999.4
20260505035520 71 150 8.0 17.0 0.00 0.00 0.00 72 999.4
20260505035020 71 122 10.0 14.0 0.00 0.00 0.00 72 999.0
20260505034538 71 118 8.0 11.0 0.00 0.00 0.00 71 999.3
20260505034021 71 119 7.0 11.0 0.00 0.00 0.00 71 999.6
20260505033521 71 104 7.0 10.0 0.00 0.00 0.00 71 999.8
20260505033039 72 132 5.0 12.0 0.00 0.00 0.00 70 999.8
20260505032521 72 133 5.0 16.0 0.00 0.00 0.00 70 999.6
20260505032021 72 165 8.0 20.0 0.00 0.00 0.00 70 999.5
20260505031543 72 169 10.0 23.0 0.00 0.00 0.00 70 999.5
20260505031020 72 149 13.0 23.0 0.00 0.00 0.00 70 999.5
20260505030520 72 153 13.0 20.0 0.00 0.00 0.00 70 999.6
20260505030037 72 174 13.0 20.0 0.00 0.00 0.00 70 999.8
20260505025520 72 148 13.0 20.0 0.00 0.00 0.00 69 999.8
20260505025022 72 150 9.0 16.0 0.00 0.00 0.00 68 1000.0
20260505024547 72 157 9.0 13.0 0.00 0.00 0.00 68 999.8
20260505024023 72 160 7.0 15.0 0.00 0.00 0.00 67 999.7
20260505023523 73 151 7.0 15.0 0.00 0.00 0.00 68 999.5
20260505023041 73 138 8.0 16.0 0.00 0.00 0.00 67 999.6
20260505022523 73 193 9.0 17.0 0.00 0.00 0.00 67 999.8
20260505022021 73 147 11.0 17.0 0.00 0.00 0.00 67 999.7
20260505021539 73 175 9.0 15.0 0.00 0.00 0.00 66 1000.0
20260505021022 73 180 9.0 18.0 0.00 0.00 0.00 66 1000.0
20260505020521 73 174 10.0 18.0 0.00 0.00 0.00 66 999.8
20260505020038 73 160 10.0 16.0 0.00 0.00 0.00 65 999.4
20260505015521 73 155 8.0 17.0 0.00 0.00 0.00 64 999.5
20260505015022 73 153 9.0 18.0 0.00 0.00 0.00 64 999.3
20260505014558 73 153 11.0 18.0 0.00 0.00 0.00 63 999.1
20260505014022 74 166 9.0 15.0 0.00 0.00 0.00 63 999.2
20260505013520 74 173 9.0 14.0 0.00 0.00 0.00 62 999.1
20260505013038 74 150 9.0 13.0 0.00 0.00 0.00 61 999.0
20260505012521 74 146 8.0 11.0 0.00 0.00 0.00 61 999.2
20260505012022 74 148 6.0 12.0 0.00 0.00 0.00 60 999.0
20260505011548 75 179 7.0 16.0 0.00 0.00 0.00 60 998.7
20260505011021 75 162 8.0 16.0 0.00 0.00 0.00 59 998.7
20260505010521 75 136 8.0 15.0 0.00 0.00 0.00 58 998.5
20260505010040 75 147 10.0 15.0 0.00 0.00 0.00 58 998.7
20260505005521 76 159 8.0 14.0 0.00 0.00 0.00 58 998.7
20260505005023 76 144 5.0 12.0 0.00 0.00 0.00 57 998.8
20260505004541 76 155 7.0 13.0 0.00 0.00 0.00 57 999.0
20260505004022 76 150 9.0 13.0 0.00 0.00 0.00 56 999.0
20260505003521 76 143 7.0 13.0 0.00 0.00 0.00 56 998.9
20260505003037 76 168 8.0 14.0 0.00 0.00 0.00 55 998.9
20260505002523 77 182 7.0 14.0 0.00 0.00 0.00 55 999.1
20260505002020 77 202 8.0 15.0 0.00 0.00 0.00 55 999.0
20260505001538 77 184 7.0 15.0 0.00 0.00 0.00 54 999.1
20260505001023 77 158 9.0 14.0 0.00 0.00 0.00 54 999.0
20260505000526 77 182 8.0 14.0 0.00 0.00 0.00 53 999.2
20260505000048 78 141 9.0 17.0 0.00 0.00 0.00 53 999.1
20260504235520 78 165 9.0 17.0 0.00 0.00 0.00 53 999.0
20260504235024 78 173 9.0 17.0 0.00 0.00 0.00 52 999.2
20260504234545 78 193 8.0 23.0 0.00 0.00 0.00 51 999.2
20260504234025 79 175 11.0 23.0 0.00 0.00 0.00 51 999.1
20260504233521 79 149 12.0 20.0 0.00 0.00 0.00 50 999.1
20260504233056 79 215 12.0 20.0 0.00 0.00 0.00 50 999.3
20260504232522 79 198 11.0 18.0 0.00 0.00 0.00 48 999.3
20260504232020 80 210 8.0 18.0 0.00 0.00 0.00 48 999.2
20260504231540 80 171 11.0 20.0 0.00 0.00 0.00 47 999.2
20260504231023 80 214 11.0 21.0 0.00 0.00 0.00 47 999.1